CFCOG CYWG-CYWG

Flight info

Callsign CFCOG
Flight time 0h 2m
Altitude 19000
Route KOBID AMBIL5
Aircraft R722/M-SDFGRWY/S

Departure

Time 2026-05-07 04:46
Airport Winnipeg / James Armstrong Richardson International Airport (CYWG)

Arrival

Time 2026-05-07 04:49
Airport Winnipeg / James Armstrong Richardson International Airport (CYWG)
Time Latitude Longitude Altitude Speed Heading
2026-05-07 04:30 49.90014 -97.24554 781 ft 0 kts 94°
2026-05-07 04:34 49.90014 -97.24555 781 ft 0 kts 92°
2026-05-07 04:37 49.90019 -97.24504 824 ft 19 kts 111°
2026-05-07 04:37 49.90046 -97.24133 1227 ft 37 kts 90°
2026-05-07 04:37 49.90199 -97.23769 1507 ft 43 kts 59°
2026-05-07 04:37 49.90302 -97.23360 1594 ft 35 kts 83°
2026-05-07 04:38 49.90314 -97.22927 1222 ft 51 kts 102°
2026-05-07 04:38 49.90313 -97.22466 986 ft 33 kts 117°
2026-05-07 04:38 49.90235 -97.22075 1008 ft 49 kts 109°
2026-05-07 04:38 49.90021 -97.21802 1048 ft 53 kts 204°
2026-05-07 04:39 49.90009 -97.22313 1101 ft 59 kts 336°
2026-05-07 04:39 49.90358 -97.22408 1065 ft 45 kts 91°
2026-05-07 04:39 49.90283 -97.21888 1143 ft 64 kts 126°
2026-05-07 04:39 49.90068 -97.21384 1120 ft 67 kts 217°
2026-05-07 04:40 49.89697 -97.21779 995 ft 67 kts 124°
2026-05-07 04:40 49.89917 -97.21800 1063 ft 74 kts 318°
2026-05-07 04:40 49.90295 -97.22546 984 ft 70 kts 327°
2026-05-07 04:40 49.90656 -97.22347 941 ft 72 kts 96°
2026-05-07 04:41 49.90749 -97.22400 838 ft 37 kts 225°
2026-05-07 04:41 49.90633 -97.22690 848 ft 31 kts 211°
2026-05-07 04:41 49.90490 -97.22872 876 ft 50 kts 194°
2026-05-07 04:41 49.90175 -97.23146 964 ft 30 kts 144°
2026-05-07 04:42 49.90034 -97.22871 1137 ft 51 kts 74°
2026-05-07 04:42 49.89818 -97.22514 927 ft 22 kts 306°
2026-05-07 04:42 49.89903 -97.22658 781 ft 10 kts 289°
2026-05-07 04:42 49.89904 -97.22664 781 ft 0 kts 274°
2026-05-07 04:44 49.89906 -97.22684 783 ft 4 kts 344°
2026-05-07 04:44 49.89904 -97.22690 781 ft 0 kts 27°
2026-05-07 04:44 49.89916 -97.22687 927 ft 12 kts 46°
2026-05-07 04:45 49.90091 -97.22435 1196 ft 50 kts 28°
2026-05-07 04:45 49.90321 -97.22682 1065 ft 18 kts 198°
2026-05-07 04:45 49.90429 -97.22816 1244 ft 25 kts 137°
2026-05-07 04:45 49.90256 -97.22304 966 ft 72 kts 113°
2026-05-07 04:46 49.90156 -97.21945 1043 ft 44 kts 189°
2026-05-07 04:46 49.90101 -97.21541 1209 ft 59 kts 91°
2026-05-07 04:46 49.90120 -97.20909 1360 ft 65 kts 95°
2026-05-07 04:46 49.90117 -97.20184 1449 ft 67 kts 97°
2026-05-07 04:47 49.90273 -97.19444 1166 ft 88 kts 51°
2026-05-07 04:47 49.90207 -97.18725 1225 ft 68 kts 116°
2026-05-07 04:47 49.90091 -97.17973 1291 ft 71 kts 108°
2026-05-07 04:47 49.90049 -97.17172 1345 ft 75 kts 99°
2026-05-07 04:48 49.90002 -97.16393 1525 ft 70 kts 105°
2026-05-07 04:48 49.89875 -97.15663 1543 ft 71 kts 112°
2026-05-07 04:48 49.89703 -97.14889 1405 ft 80 kts 112°
2026-05-07 04:48 49.89468 -97.14180 1183 ft 80 kts 70°
2026-05-07 04:49 49.89300 -97.13448 1102 ft 81 kts 128°
2026-05-07 04:49 49.89034 -97.13029 1262 ft 42 kts 247°
2026-05-07 04:49 49.89014 -97.12946 1167 ft 53 kts 179°
2026-05-07 04:49 49.88862 -97.12888 923 ft 36 kts 309°
2026-05-07 04:50 49.88957 -97.13146 995 ft 31 kts 229°
2026-05-07 04:50 49.89105 -97.13039 1234 ft 48 kts 103°
2026-05-07 04:50 49.89306 -97.12494 1135 ft 68 kts 55°
2026-05-07 04:50 49.89708 -97.12338 1137 ft 79 kts 288°
2026-05-07 04:51 49.89794 -97.12921 1239 ft 67 kts 29°
2026-05-07 04:51 49.90026 -97.13013 1075 ft 42 kts 126°
2026-05-07 04:51 49.89947 -97.12713 1172 ft 46 kts 240°
2026-05-07 04:51 49.89669 -97.12982 1324 ft 54 kts 193°
2026-05-07 04:52 49.89206 -97.13012 1329 ft 76 kts 191°
2026-05-07 04:52 49.88767 -97.13423 1452 ft 80 kts 229°
2026-05-07 04:52 49.88364 -97.14131 1318 ft 91 kts 252°
2026-05-07 04:52 49.88212 -97.14998 1286 ft 77 kts 263°
2026-05-07 04:53 49.88156 -97.15754 1322 ft 79 kts 283°
2026-05-07 04:53 49.88206 -97.16511 1314 ft 75 kts 269°
2026-05-07 04:53 49.88310 -97.17293 1342 ft 71 kts 290°
2026-05-07 04:53 49.88401 -97.18034 1381 ft 73 kts 274°
2026-05-07 04:54 49.88448 -97.18845 1366 ft 72 kts 279°
2026-05-07 04:54 49.88612 -97.19619 1277 ft 84 kts 300°
2026-05-07 04:54 49.88878 -97.20311 1352 ft 73 kts 305°
2026-05-07 04:54 49.89189 -97.20963 1313 ft 81 kts 310°
2026-05-07 04:55 49.89518 -97.21607 1489 ft 60 kts 327°
2026-05-07 04:55 49.89867 -97.22143 1207 ft 81 kts 322°
2026-05-07 04:55 49.90307 -97.22603 1019 ft 89 kts 359°
2026-05-07 04:55 49.90468 -97.22935 982 ft 10 kts 107°
2026-05-07 04:56 49.90458 -97.22764 850 ft 11 kts 145°
2026-05-07 04:56 49.90491 -97.22740 781 ft 0 kts 60°
2026-05-07 05:04 49.90485 -97.22743 803 ft 3 kts 224°
2026-05-07 05:04 49.90621 -97.22819 923 ft 50 kts 357°
2026-05-07 05:04 49.90924 -97.23301 928 ft 77 kts 330°
2026-05-07 05:04 49.91491 -97.23414 854 ft 84 kts 14°
2026-05-07 05:05 49.92020 -97.23288 804 ft 71 kts 17°
2026-05-07 05:05 49.92437 -97.23275 827 ft 40 kts 275°
2026-05-07 05:05 49.92389 -97.23480 941 ft 42 kts 192°